Weather reports worldwide

Advertisment
Torino/Caselle, Italy (16059): temperature & dewpoint: 10.11.2018 05:00:00 - 16.11.2018 05:00:00 (CET)Torino/Caselle, Italy (16059): wind speed: 10.11.2018 05:00:00 - 16.11.2018 05:00:00 (CET)Torino/Caselle, Italy (16059): wind direction: 10.11.2018 05:00:00 - 16.11.2018 05:00:00 (CET)Torino/Caselle, Italy (16059): reduced air pressure: 10.11.2018 05:00:00 - 16.11.2018 05:00:00 (CET)Torino/Caselle, Italy (16059): visibility: 10.11.2018 05:00:00 - 16.11.2018 05:00:00 (CET)Torino/Caselle, Italy (16059): precipitation: 10.11.2018 05:00:00 - 16.11.2018 05:00:00 (CET)
Date & Time tt [°C] td [°C] ff [km/h] ff [kn] dd ppp [hPa] vv [km] rr [mm]
16.11.2018 05:00:00 - - - - - - - -
16.11.2018 04:00:00 10,3 10,3 4 2 - 1024,5 3,0 0,0
16.11.2018 03:00:00 10,0 10,0 4 2 ENE - 3,0 -
16.11.2018 02:00:00 11,0 11,0 5 3 E - 4,0 -
16.11.2018 01:00:00 11,1 10,8 8 4 W 1024,4 4,0 -
16.11.2018 00:00:00 11,0 11,0 2 1 - - 3,5 -
15.11.2018 23:00:00 11,0 11,0 2 1 - - 3,5 -
15.11.2018 22:00:00 10,9 10,7 2 1 - 1024,4 3,5 0,0
15.11.2018 21:00:00 11,0 11,0 5 3 NNE - 3,5 -
15.11.2018 20:00:00 11,0 11,0 4 2 NNW - 3,0 -
15.11.2018 19:00:00 10,6 10,5 2 1 ENE 1024,9 3,0 -
15.11.2018 18:00:00 11,0 11,0 4 2 E - 3,5 -
15.11.2018 17:00:00 11,0 11,0 2 1 - - 3,5 -
15.11.2018 16:00:00 10,4 10,0 2 1 - 1024,9 4,0 0,0
15.11.2018 15:00:00 10,0 10,0 5 3 SSW - 3,5 -
15.11.2018 14:00:00 10,0 10,0 4 2 - - 4,0 -
15.11.2018 13:00:00 9,1 9,1 5 3 W 1026,4 3,5 -
15.11.2018 12:00:00 9,0 9,0 4 2 - - 2,2 -
15.11.2018 11:00:00 9,0 9,0 5 3 ESE - 1,6 -
15.11.2018 10:00:00 8,4 8,4 5 3 SE 1027,3 0,7 0,0
15.11.2018 09:00:00 8,0 8,0 2 1 - - 0,5 -
15.11.2018 08:00:00 8,0 8,0 2 1 - - 0,9 -
15.11.2018 07:00:00 7,7 7,7 4 2 WNW 1026,7 0,5 -
15.11.2018 06:00:00 8,0 8,0 5 3 WNW - 1,5 -
15.11.2018 05:00:00 8,0 8,0 9 5 WNW - 0,2 -
15.11.2018 04:00:00 8,5 8,5 4 2 - 1026,9 0,2 0,0
15.11.2018 03:00:00 9,0 9,0 4 2 - - 0,2 -
15.11.2018 02:00:00 9,0 9,0 2 1 - - 0,1 -
15.11.2018 01:00:00 10,0 10,0 8 4 NNE - 0,1 -
15.11.2018 00:00:00 9,0 9,0 4 2 - - 0,1 -
14.11.2018 23:00:00 8,0 8,0 0 0 N - 0,1 -
14.11.2018 22:00:00 8,1 8,1 2 1 - 1027,9 0,1 0,0
14.11.2018 21:00:00 9,0 9,0 2 1 - - 0,1 -
14.11.2018 20:00:00 10,0 10,0 2 1 - - 0,1 -
14.11.2018 19:00:00 9,7 9,7 4 2 E 1027,4 0,1 -
14.11.2018 18:00:00 11,0 11,0 4 2 NE - 4,0 -
14.11.2018 17:00:00 13,0 12,0 5 3 E - 7 -
14.11.2018 16:00:00 13,9 11,9 8 4 E 1027,4 8 0,0
14.11.2018 15:00:00 14,0 12,0 8 4 E - 8 -
14.11.2018 14:00:00 14,0 12,0 8 4 E - 10 -
14.11.2018 13:00:00 14,4 11,0 5 3 E 1029,1 10 -
14.11.2018 12:00:00 14,0 11,0 5 3 - - 10 -
14.11.2018 11:00:00 13,0 11,0 8 4 E - 10 -
14.11.2018 10:00:00 12,7 11,1 4 2 NE 1030,1 10 0,0
14.11.2018 09:00:00 9,0 8,0 2 1 - - 10 -
14.11.2018 08:00:00 7,0 7,0 4 2 WNW - 10 -
14.11.2018 07:00:00 7,5 7,5 8 4 NNW 1028,7 10 -
14.11.2018 06:00:00 7,0 7,0 5 3 NW - 10 -
14.11.2018 05:00:00 7,0 7,0 4 2 WNW - 10 -
14.11.2018 04:00:00 7,8 7,5 5 3 NW 1028,2 10 0,0
14.11.2018 03:00:00 7,0 7,0 8 4 N - 10 -
14.11.2018 02:00:00 8,0 8,0 4 2 W - 10 -
14.11.2018 01:00:00 8,3 8,2 4 2 - 1028,1 10 -
14.11.2018 00:00:00 8,0 8,0 4 2 - - 10 -
13.11.2018 23:00:00 10,0 9,0 8 4 W - 10 -
13.11.2018 22:00:00 9,9 9,5 4 2 - 1028,4 10 0,0
13.11.2018 21:00:00 10,0 10,0 8 4 WNW - 10 -
13.11.2018 20:00:00 12,0 11,0 4 2 - - 8 -
13.11.2018 19:00:00 13,0 11,4 4 2 N 1028,1 15 -
13.11.2018 18:00:00 14,0 11,0 5 3 WSW - 10 -
13.11.2018 17:00:00 15,0 11,0 5 3 SSW - 10 -
13.11.2018 16:00:00 15,5 11,9 8 4 S 1027,2 10 0,0
13.11.2018 15:00:00 17,0 10,0 4 2 - - 10 -
13.11.2018 14:00:00 17,0 11,0 4 2 - - 10 -
13.11.2018 13:00:00 16,2 11,2 4 2 - 1027,9 10 -
13.11.2018 12:00:00 15,0 12,0 4 2 - - 10 -
13.11.2018 11:00:00 14,0 11,0 5 3 S - 10 -
13.11.2018 10:00:00 12,5 10,2 5 3 W 1028,5 10 0,0
13.11.2018 09:00:00 11,0 10,0 5 3 W - 10 -
13.11.2018 08:00:00 9,0 9,0 4 2 SSW - 10 -
13.11.2018 07:00:00 10,0 9,6 4 2 - 1027,4 10 -
13.11.2018 06:00:00 10,0 10,0 5 3 WNW - 10 -
13.11.2018 05:00:00 10,0 10,0 5 3 WNW - 8 -
13.11.2018 04:00:00 10,2 10,2 5 3 WNW 1027,4 7 0,0
13.11.2018 03:00:00 11,0 11,0 5 3 WNW - 7 -
13.11.2018 02:00:00 12,0 11,0 5 3 NW - 7 -
13.11.2018 01:00:00 11,9 11,8 2 1 WNW 1027,7 10 -
13.11.2018 00:00:00 12,0 12,0 4 2 NW - 6 -
12.11.2018 23:00:00 12,0 12,0 2 1 - - 5 -
12.11.2018 22:00:00 12,6 12,2 2 1 - 1027,7 5 0,0
12.11.2018 21:00:00 13,0 12,0 2 1 - - 5 -
12.11.2018 20:00:00 13,0 12,0 4 2 - - 5 -
12.11.2018 19:00:00 12,7 12,3 4 2 - 1027,3 5 -
12.11.2018 18:00:00 13,0 13,0 2 1 NNE - 3,5 -
12.11.2018 17:00:00 14,0 13,0 2 1 SE - 3,5 -
12.11.2018 16:00:00 13,8 12,4 4 2 - 1026,7 6 0,0
12.11.2018 15:00:00 14,0 12,0 4 2 - - 6 -
12.11.2018 14:00:00 14,0 12,0 2 1 - - 5 -
12.11.2018 13:00:00 13,8 12,1 2 1 - 1027,0 5 -
12.11.2018 12:00:00 13,0 12,0 4 2 - - 4,0 -
12.11.2018 11:00:00 13,0 12,0 4 2 - - 5 -
12.11.2018 10:00:00 12,5 12,3 5 3 W 1027,0 3,0 0,0
12.11.2018 09:00:00 12,0 12,0 0 0 N - 0,6 -
12.11.2018 08:00:00 12,0 12,0 2 1 NE - 0,5 -
12.11.2018 07:00:00 11,4 11,4 2 1 WNW 1025,5 0,3 -
12.11.2018 06:00:00 11,0 11,0 2 1 - - 2,0 -
12.11.2018 05:00:00 12,0 12,0 2 1 SE - 2,5 -
12.11.2018 04:00:00 11,6 11,6 2 1 - 1025,0 2,5 0,0
12.11.2018 03:00:00 12,0 12,0 5 3 WNW - 2,4 -
12.11.2018 02:00:00 12,0 12,0 2 1 - - 3,0 -
12.11.2018 01:00:00 11,4 11,4 4 2 ESE 1024,7 2,2 -
12.11.2018 00:00:00 12,0 12,0 4 2 ENE - 6 -
11.11.2018 23:00:00 12,0 12,0 2 1 - - 6 -
11.11.2018 22:00:00 12,1 12,1 2 1 - 1024,4 6 0,0
11.11.2018 21:00:00 12,0 12,0 4 2 N - 6 -
11.11.2018 20:00:00 12,0 12,0 4 2 NNE - 4,0 -
11.11.2018 19:00:00 12,1 12,1 5 3 N 1023,2 4,0 -
11.11.2018 18:00:00 12,0 12,0 5 3 N - 5 -
11.11.2018 17:00:00 12,0 12,0 5 3 NNE - 4,5 -
11.11.2018 16:00:00 12,4 12,0 5 3 ENE 1021,9 5 0,0
11.11.2018 15:00:00 12,0 12,0 5 3 NNE - 5 -
11.11.2018 14:00:00 12,0 12,0 4 2 - - 1,6 -
11.11.2018 13:00:00 11,9 11,9 5 3 ENE 1020,9 2,0 -
11.11.2018 12:00:00 12,0 12,0 5 3 NE - 1,8 -
11.11.2018 11:00:00 12,0 12,0 8 4 NNE - 1,3 -
11.11.2018 10:00:00 11,4 11,4 5 3 NNE 1019,8 1,2 0,0
11.11.2018 09:00:00 11,0 11,0 5 3 N - 0,9 -
11.11.2018 08:00:00 11,0 11,0 5 3 NNE - 0,9 -
11.11.2018 07:00:00 11,0 11,0 5 3 NE 1017,7 1,5 -
11.11.2018 06:00:00 11,0 11,0 4 2 NE - 0,9 -
11.11.2018 05:00:00 11,0 11,0 9 5 ENE - 1,3 -
11.11.2018 04:00:00 11,1 11,1 9 5 ENE 1016,6 0,9 0,0
11.11.2018 03:00:00 11,0 11,0 5 3 ENE - 0,9 -
11.11.2018 02:00:00 12,0 12,0 5 3 N - 0,9 -
11.11.2018 01:00:00 11,6 11,6 5 3 N 1016,3 2,5 -
11.11.2018 00:00:00 12,0 12,0 5 3 NNE - 2,0 -
10.11.2018 23:00:00 12,0 12,0 5 3 N - 2,0 -
10.11.2018 22:00:00 11,4 11,4 4 2 NE 1016,1 2,0 0,0
10.11.2018 21:00:00 11,0 11,0 8 4 NE - 1,6 -
10.11.2018 20:00:00 12,0 12,0 8 4 ENE - 1,6 -
10.11.2018 19:00:00 11,7 11,7 9 5 ENE 1015,7 1,2 -
10.11.2018 18:00:00 12,0 12,0 9 5 E - 1,0 -
10.11.2018 17:00:00 12,0 12,0 9 5 E - 0,8 -
10.11.2018 16:00:00 12,6 12,4 4 2 - 1015,2 4,5 0,0
10.11.2018 15:00:00 13,0 12,0 8 4 ENE - 5 -
10.11.2018 14:00:00 13,0 12,0 5 3 ENE - 10 -
10.11.2018 13:00:00 12,8 11,9 8 4 E 1015,8 7 -
10.11.2018 12:00:00 - - - - - - - -
10.11.2018 11:00:00 12,0 12,0 4 2 - - 5 -
10.11.2018 10:00:00 12,1 12,1 4 2 E 1017,0 3,2 0,0
10.11.2018 09:00:00 12,0 12,0 4 2 - - 1,8 -
10.11.2018 08:00:00 12,0 12,0 2 1 ENE - 1,4 -
10.11.2018 07:00:00 11,6 11,6 4 2 NE 1016,5 2,0 -
10.11.2018 06:00:00 12,0 12,0 4 2 NNE - 2,0 -
10.11.2018 05:00:00 12,0 12,0 4 2 NNE - 7 -

tt = temperature
td = dewpoint
ff = wind speed
dd = wind direction
ppp = reduced air pressure
vv = visibility
rr = precipitation

Next stations